カタログに戻る

FENGYUN 1C DEB

運用中PO
NORAD 30892·DEBRIS·🇨🇳 China

打ち上げ May 10, 1999 から Taiyuan Satellite Launch Center

Loading…

次のパス (今後24時間)

TLE

経年Source: Space-Track

元期: Sep 7, 2026, 15:17 UTC

1 30892U 99025AYE 26250.63707440  .00000386  00000-0  20718-3 0  9991
2 30892  99.6925 223.3894 0038237 157.9401 202.3428 14.19333474681178

AllMySatでFENGYUN 1C DEBをリアルタイム追跡

Download on the App Store